Location: Feldbach
(47.2400°N, 8.7859°E)
Time: 04:01:56
(UTC+00:00)

Daily predictions for brighter satellites

Satellite Brightness Start Highest point End
(mag) Time Altitude Azimuth Time Altitude Azimuth Time Altitude Azimuth
Okean 1 Rocket 3.9 00:09:30 46° NE 00:09:30 46° NE 00:12:45 10° NNE
SJ 16-02 2.4 00:09:53 41° NE 00:09:53 41° NE 00:13:00 10° NNE
Okean 2 Rocket 4.3 00:10:41 37° NW 00:10:41 37° NW 00:14:05 10° N
SL-16 R/B 2.1 00:08:19 10° NNW 00:13:48 80° WNW 00:13:48 80° WNW
Cosmos 2263 Rocket 3.8 00:14:58 21° ESE 00:15:11 21° E 00:19:14 10° NE
Meteor 2-13 Rocket 4.4 00:11:07 10° NNW 00:17:11 66° W 00:17:19 66° WSW
Cosmos 1428 Rocket 4.3 00:12:04 10° N 00:18:23 83° W 00:18:53 75° SSW
Cosmos 2142 Rocket 4.5 00:17:47 66° SE 00:18:33 73° E 00:24:57 10° NNE
MOZ.5/SAFIR/RUBIN 5/SL-8 4.4 00:22:13 51° ENE 00:22:20 51° ENE 00:26:55 10° N
SL-19 R/B 4.4 00:20:49 10° NNE 00:26:34 58° ESE 00:26:52 57° ESE
Cosmos 1937 Rocket 4.3 00:27:08 40° ESE 00:27:08 40° ESE 00:32:03 10° NE
Cosmos 990 Rocket 4.2 00:29:47 59° E 00:29:47 59° E 00:34:37 10° NNE
Cosmos 2297 Rocket 2.8 00:28:55 43° WNW 00:29:41 45° NW 00:35:08 10° NNE
Cosmos 158 Rocket 4.0 00:24:53 10° NNW 00:29:59 77° WNW 00:29:59 77° WNW
ADEOS II 4.2 00:28:37 10° NE 00:31:48 16° E 00:33:35 14° ESE
Cosmos 1455 Rocket 4.2 00:35:30 37° E 00:35:30 37° E 00:39:23 10° NNE
Cosmos 1092 Rocket 4.5 00:30:36 10° NNW 00:36:26 44° W 00:36:34 44° W
Cosmos 2112 Rocket 3.9 00:31:52 10° NNW 00:36:46 78° NW 00:36:46 78° NW
USA 229 DEB 3.6 00:36:45 59° SSE 00:37:30 63° ESE 00:44:15 10° NE
USA 229 3.6 00:36:52 59° SSE 00:37:36 63° ESE 00:44:20 10° NE
UNK 4.3 00:38:59 49° E 00:39:25 51° ENE 00:43:58 10° N
Cosmos 2237 Rocket 4.0 00:38:55 10° NW 00:41:12 17° WNW 00:41:12 17° WNW
Cosmos 2219 4.3 00:41:47 29° WNW 00:43:07 33° NW 00:48:12 10° NNE
Meteor 1-15 Rocket 4.4 00:43:07 57° W 00:43:22 58° WNW 00:48:53 10° N
Cosmos 1898 Rocket 3.4 00:43:56 74° ESE 00:43:56 74° ESE 00:49:09 10° NNE
GEOS 3 Rocket 4.4 00:42:10 10° NE 00:47:12 38° ESE 00:47:19 38° ESE
Cosmos 1892 Rocket 3.8 00:43:53 10° N 00:47:51 66° NNE 00:47:51 66° NNE
NOSS 3-1 (A) 3.5 00:48:36 52° SE 00:48:55 53° ESE 00:55:01 10° NE
Meteor 1-24 Rocket 3.4 00:43:30 10° NNW 00:48:56 86° W 00:49:06 83° SSW
IRAS Rocket 4.3 00:49:56 54° SE 00:51:12 74° ENE 00:56:49 10° NNW
Cosmos 1680 Rocket 3.9 00:47:09 10° NNW 00:51:28 49° WNW 00:51:28 49° WNW
Cosmos 1603 4.1 00:48:55 10° NNW 00:54:38 63° ENE 00:57:17 32° SE
Cosmos 1461 3.7 00:55:29 49° NW 00:55:29 49° NW 00:59:52 10° NNE
DELTA 2 DEB (DPAF) 4.3 01:05:02 65° NW 01:05:02 65° NW 01:08:58 10° NNW
Cosmos 1340 Rocket 3.3 01:07:07 55° ENE 01:07:07 55° ENE 01:10:31 10° NNE
CZ-2D R/B 2.2 01:01:31 10° NNE 01:07:02 73° ESE 01:08:00 59° SSE
Cosmos 1758 3.9 01:08:43 54° ENE 01:08:43 54° ENE 01:12:20 10° NNE
SL-16 R/B 2.4 01:09:25 52° S 01:11:06 80° WSW 01:17:23 10° NNW
Timation 1 Rocket 4.2 01:10:12 61° SSW 01:11:19 86° ESE 01:17:20 10° NNE
Cosmos 1943 3.3 01:07:35 10° NNW 01:13:14 72° ENE 01:16:09 29° SE
SL-24 R/B 4.5 01:12:55 62° SSE 01:13:46 80° E 01:19:07 10° N
Cosmos 1626 3.9 01:13:25 10° NNW 01:15:17 25° NW 01:15:17 25° NW
Cosmos 1655 Rocket 4.0 01:11:00 10° NNW 01:17:11 66° W 01:18:26 53° SW
IKONOS-2 4.4 01:18:12 85° NE 01:18:12 85° NE 01:22:27 10° NNW
Cosmos 2227 Rocket 3.8 01:18:31 21° W 01:20:40 26° NW 01:25:21 10° N
Cosmos 2292 Rocket 4.3 01:13:55 10° NNW 01:20:57 71° W 01:22:07 55° SSW
Cosmos 1544 Rocket 3.5 01:22:37 78° SE 01:22:51 82° E 01:27:20 10° N
Cosmos 1470 2.9 01:24:19 69° NNW 01:24:19 69° NNW 01:27:56 10° N
IRS-1D 4.1 01:19:03 10° NNE 01:24:01 49° E 01:25:39 36° SSE
Cosmos 1953 3.2 01:23:54 40° ESE 01:24:22 42° E 01:28:13 10° NNE
Meteor 2-5 Rocket 4.5 01:20:11 10° NNW 01:25:04 34° W 01:25:04 34° W
Meteor 1-22 Rocket 4.3 01:25:04 48° W 01:25:43 51° WNW 01:30:59 10° N
NPP 3.6 01:20:25 10° NNE 01:25:51 87° ESE 01:27:05 56° S
Helios 1B rocket 4.3 01:23:11 10° NNW 01:25:58 19° WNW 01:25:58 19° WNW
AQUA 3.7 01:28:47 10° NNE 01:33:35 85° ESE 01:34:26 61° S
Atlas Centaur 2 4.3 01:38:02 13° SSE 01:38:02 13° SSE 01:40:10 10° SE
Exosat Rocket 4.2 01:36:53 38° SSW 01:40:08 82° WNW 01:46:07 10° NNE
Resurs 1-4 Rocket 2.2 01:35:13 10° N 01:40:25 60° WNW 01:41:36 48° WSW
Cosmos 1602 Rocket 3.6 01:38:56 10° N 01:43:18 76° E 01:44:26 48° SSE
Cosmos 2098 Rocket 4.1 01:39:13 10° NNW 01:44:42 53° W 01:46:32 40° SW
NOSS 2-3 (E) 3.8 01:44:49 52° W 01:45:42 65° NW 01:50:51 10° NE
Cosmos 2227 4.2 01:44:00 46° SW 01:45:46 75° WNW 01:51:35 10° NNE
SJ 16-02 3.2 01:46:52 18° WNW 01:47:38 19° NW 01:50:46 10° N
USA 267 4.3 01:42:21 10° E 01:48:30 46° NNE 01:54:40 10° NW
IDEFIX/ARIANE 42P 4.3 01:44:35 10° NE 01:48:59 27° E 01:53:20 10° SSE
Meteor 2-14 Rocket 4.3 01:43:05 10° N 01:49:11 90° WSW 01:52:41 27° S
NOSS 3-1 (C) 4.0 01:48:09 29° W 01:50:45 47° NW 01:57:08 10° NE
Cosmos 1048 Rocket 4.0 01:51:23 10° NNW 01:56:34 81° ENE 02:01:22 12° SSE
SL-16 R/B 4.2 01:54:39 10° WNW 01:55:37 12° WNW 01:55:37 12° WNW
Cosmos 1908 4.0 01:56:15 32° SE 01:57:37 47° E 02:01:24 10° NNE
Cosmos 2263 Rocket 2.2 01:56:40 41° SW 01:58:35 66° WNW 02:04:08 10° NNE
IRS-P3 4.4 01:53:43 10° NNE 01:59:04 66° ESE 02:01:52 28° S
Cosmos 2298 Rocket 4.0 01:57:57 39° SSW 01:59:58 83° ESE 02:05:21 10° NNE
Cosmos 2228 4.3 01:59:31 18° SSE 02:02:19 37° E 02:06:23 10° NNE
Meteor 1-16 Rocket 4.2 02:01:57 29° S 02:04:48 77° E 02:10:26 10° NNE
Cosmos 372 Rocket 4.1 02:04:36 40° SW 02:06:25 65° WNW 02:11:41 10° NNE
Meteor 1-28 Rocket 3.4 02:06:34 27° SSE 02:08:32 71° ENE 02:12:20 10° N
COBE Rocket 4.1 02:08:32 40° WSW 02:09:16 44° W 02:13:44 10° NNW
SL-08 R/B 3.4 02:05:26 16° SSE 02:09:22 82° ENE 02:14:20 10° NNW
NOSS 2-3 (D) 4.4 02:08:30 32° W 02:10:10 47° NW 02:15:14 10° NNE
ADEOS II 2.0 02:06:49 10° NNE 02:12:06 77° WNW 02:14:32 33° SSW
Cosmos 1626 Rocket 4.0 02:08:35 10° NNW 02:12:38 40° W 02:13:03 39° WSW
Cosmos 1455 Rocket 4.4 02:12:38 23° W 02:13:13 24° WNW 02:16:51 10° NNW
Cosmos 2285 Rocket 4.0 02:10:59 29° SSW 02:14:26 89° ESE 02:20:46 10° NNE
Cosmos 1726 2.6 02:14:19 41° W 02:14:32 41° WNW 02:18:02 10° N
ATLAS CENTAUR R/B 1.2 02:13:46 47° SSW 02:14:52 86° SE 02:18:47 10° NE
CZ-4B R/B 3.6 02:10:21 10° N 02:14:59 54° WNW 02:16:40 36° SW
Cosmos 1900 4.5 02:10:33 10° NNW 02:15:43 80° NE 02:20:53 10° SE
Cosmos 1553 Rocket 4.1 02:15:29 18° S 02:20:04 75° E 02:26:13 10° NNE
Cosmos 1844 Rocket 3.5 02:17:42 17° S 02:21:38 45° ESE 02:26:55 10° NE
ERS-2 4.5 02:19:33 10° ESE 02:22:36 25° ENE 02:25:39 10° N
GEOS 3 Rocket 4.2 02:20:05 10° NNE 02:25:19 51° NW 02:28:25 24° WSW
Meteor 1-11 4.4 02:19:49 10° N 02:25:35 75° ENE 02:31:15 10° SSE
CBERS-1 4.4 02:23:50 10° N 02:28:46 49° WNW 02:31:10 28° SW
Cosmos 1745 Rocket 4.2 02:24:17 10° N 02:30:36 75° E 02:36:47 10° SSE
Cosmos 2084 3.6 02:28:47 32° WSW 02:30:41 66° NW 02:35:07 10° NE
ARIANE 5 R/B 2.5 02:27:13 10° NNE 02:32:31 89° ESE 02:36:11 20° SSW
NOSS 8 (E) 4.0 02:32:47 46° SW 02:33:35 83° NW 02:36:37 10° NE
Cosmos 1758 Rocket 3.5 02:31:15 10° NNW 02:35:31 60° W 02:38:14 21° S
ERS-1 4.4 02:32:37 10° NNE 02:37:37 82° WNW 02:41:00 21° SSW
SL-08 R/B 4.5 02:33:34 10° NNW 02:39:46 71° W 02:46:00 10° S
NOSS 3-1 (A) 4.3 02:36:02 17° W 02:40:02 39° NW 02:46:17 10° NE
Cosmos 494 Rocket 3.9 02:39:50 10° NNW 02:44:56 63° WSW 02:50:04 10° S
Cosmos 2150 Rocket 4.5 02:42:28 24° WSW 02:45:20 47° WNW 02:50:25 10° NNE
Cosmos 2058 Rocket 3.8 02:41:55 10° S 02:46:15 53° E 02:50:34 10° NNE
CZ-2D R/B 3.8 02:42:35 10° NNW 02:46:32 21° WNW 02:49:18 14° W
H-2A R/B 2.3 02:43:18 10° SSE 02:47:20 67° ENE 02:51:26 10° N
Cosmos 1703 4.0 02:47:22 10° NNW 02:51:00 35° W 02:52:42 24° SW
S3M 4.1 02:45:35 10° S 02:51:55 88° WNW 02:58:21 10° N
CZ-2C R/B 4.0 02:48:52 10° NE 02:52:57 30° E 02:57:03 10° SSE
Cosmos 1825 Rocket 3.8 02:49:53 10° NNW 02:54:04 48° W 02:57:30 14° SSW
SL-16 R/B 4.2 02:54:31 13° W 02:55:40 14° W 02:58:47 10° NW
Landsat 5 3.6 02:52:17 10° SSE 02:56:17 77° ENE 03:00:29 10° N
Cosmos 1943 4.5 02:52:48 10° NW 02:56:39 19° W 02:57:52 18° WSW
Cosmos 1125 Rocket 3.8 02:54:00 20° SW 02:57:32 55° WNW 03:02:44 10° NNE
USA 215 3.4 02:51:48 10° NE 02:58:21 71° SE 03:03:50 15° SW
Cosmos 1953 4.1 02:59:36 16° W 03:01:00 18° WNW 03:03:50 10° NNW
SL-24 R/B 4.4 02:58:19 10° S 03:03:39 75° WSW 03:08:16 10° NNW
Cosmos 1892 4.4 03:00:41 10° N 03:04:16 36° ENE 03:07:48 10° SE
CZ-4B R/B 3.8 03:02:35 10° SE 03:05:14 25° ENE 03:07:52 10° NNE
Cosmos 1953 Rocket 3.7 03:01:09 10° NNW 03:05:34 56° W 03:09:55 10° S
CZ-2D R/B 3.6 03:05:52 10° N 03:09:45 50° WNW 03:12:51 15° SW
Cosmos 1709 Rocket 4.1 03:04:13 10° N 03:10:25 84° E 03:16:31 10° S
Resurs 1-4 Rocket 4.3 03:18:00 10° NW 03:19:11 11° NW 03:20:22 10° WNW
USA 238 DEB 4.3 03:13:53 10° NW 03:21:04 71° NE 03:28:32 10° SE
USA 238 4.3 03:13:59 10° NW 03:21:11 70° NE 03:28:38 10° SE
Cosmos 1606 Rocket 4.4 03:19:24 13° SW 03:22:53 34° WNW 03:27:00 10° N
Atlas Centaur 2 4.2 03:20:39 11° SW 03:24:50 19° S 03:29:54 10° SE
NOSS 2-2 (E) 3.2 03:22:45 14° SW 03:25:49 71° NW 03:29:55 10° NE
NOSS 2-2 (D) 3.1 03:23:29 13° SW 03:26:42 87° NW 03:30:41 10° NE
CENTAUR R/B 3.9 03:19:29 10° NW 03:27:16 58° NE 03:35:52 10° ESE
IDEFIX/ARIANE 42P 3.0 03:23:48 10° N 03:28:45 46° WNW 03:33:43 10° SW
USA 267 3.3 03:24:38 10° SE 03:31:12 89° SSW 03:37:47 10° NW
Cosmos 2082 Rocket 4.3 03:27:38 10° NNW 03:32:39 32° NE 03:37:37 10° ESE
MSX 4.0 03:29:00 10° N 03:34:42 61° WNW 03:40:22 10° SSW
Meteor 2-15 Rocket 4.5 03:28:42 10° SSW 03:34:44 66° WNW 03:40:48 10° N
PSLV R/B 3.6 03:31:08 10° NNE 03:35:32 89° ESE 03:39:52 10° SSW
COSMOS 2406 3.6 03:31:49 10° NNW 03:37:32 70° ENE 03:43:11 10° SE
Cosmos 1825 3.9 03:35:23 10° N 03:38:55 37° ENE 03:42:25 10° SE
Cosmos 2228 4.4 03:36:26 10° SW 03:39:59 23° WNW 03:43:33 10° NNW
Cosmos 2315 Rocket 4.1 03:35:15 10° SSW 03:41:35 75° W 03:48:01 10° N
ADEOS Rocket 4.0 03:34:04 10° SSE 03:41:47 73° ENE 03:49:27 10° N
Cosmos 2263 Rocket 4.2 03:40:22 10° WNW 03:43:38 16° NW 03:46:55 10° N
Cosmos 1844 4.0 03:37:57 10° SW 03:43:39 57° WNW 03:49:20 10° NNE
CZ-2C R/B 3.7 03:45:00 10° N 03:48:20 29° WNW 03:51:36 10° SW
Cosmos 2084 Rocket 4.1 03:44:57 10° NW 03:49:23 65° NE 03:53:52 10° SE
Cosmos 1455 2.8 03:45:52 10° S 03:49:41 62° E 03:53:32 10° NNE
deb Chang Zheng 4 3.8 03:45:39 10° NNE 03:50:02 77° ESE 03:54:23 10° S
ADEOS II 4.1 03:48:27 10° NNW 03:50:56 14° NW 03:53:24 10° W
